Creek Data

    Home     View Charts     View Raw Data     Messages

ID Distance Battery Voltage Battery Current Internal Temp Internal Humidity External Temp Solar Input rssi snr Time Stamp Record
33426 14.5 3.87 -34 50 39 52 0 -70 8 02/25/2025 08:30 PM 15115
33425 14.5 3.87 -5 50 40 54 0 -69 8 02/25/2025 08:15 PM 15114
33424 14.6 3.92 -5 51 40 54 0 -70 8 02/25/2025 08:00 PM 15113
33423 14.6 3.87 -5 51 40 54 0 -69 8 02/25/2025 07:45 PM 15112
33422 14.6 3.87 -5 52 40 55 0 -69 8 02/25/2025 07:30 PM 15111
33421 14.6 3.92 -5 52 41 55 0 -69 8 02/25/2025 07:15 PM 15110
33420 14.6 3.87 -5 53 41 55 0 -70 8 02/25/2025 07:00 PM 15109
33419 14.6 3.87 -5 54 42 55 0 -70 8 02/25/2025 06:45 PM 15108
33418 14.6 3.88 -5 57 43 57 0.7 -70 8 02/25/2025 06:15 PM 15106
33417 14.6 3.87 -10 59 43 58 4.2 -69 8 02/25/2025 06:00 PM 15105
33416 14.7 3.94 0 62 42 60 4.5 -70 8 02/25/2025 05:45 PM 15104
33415 14.7 3.92 17 65 41 61 4.5 -70 8 02/25/2025 05:30 PM 15103
33414 14.6 3.92 0 68 39 63 5.1 -70 8 02/25/2025 05:15 PM 15102
33413 14.7 3.92 5 70 39 64 5.1 -70 8 02/25/2025 05:00 PM 15101
33412 14.7 3.92 5 70 39 65 5.1 -71 7 02/25/2025 04:45 PM 15100
33411 14.7 4.10 5 71 39 65 5.1 -69 8 02/25/2025 04:30 PM 15099
33410 14.8 3.92 0 73 38 65 5.1 -70 8 02/25/2025 04:15 PM 15098
33409 14.8 3.98 5 75 37 66 5.1 -71 7 02/25/2025 04:00 PM 15097
33408 14.7 3.97 5 76 36 66 5.1 -70 8 02/25/2025 03:45 PM 15096
33407 14.7 3.92 5 75 36 67 5.1 -70 8 02/25/2025 03:30 PM 15095
33406 14.8 3.91 5 75 36 66 5.1 -68 8 02/25/2025 03:15 PM 15094
33405 14.8 3.92 5 75 36 66 5.1 -70 7 02/25/2025 03:00 PM 15093
33404 14.8 3.93 0 74 36 66 5.1 -69 8 02/25/2025 02:45 PM 15092
33403 14.8 3.91 0 73 36 65 5.1 -69 8 02/25/2025 02:30 PM 15091
33402 14.8 3.91 0 73 36 65 5.1 -69 8 02/25/2025 02:15 PM 15090